| time (UTC) | temp F | wind direction | speed MPH | gust MPH | rain 1hr in | rain 24hr in | rain mn in | humidity % | barometer mb |
| 20260502234821 | 73 | 162 | 0.0 | 1.0 | 0.00 | 0.00 | 0.00 | 35 | 1019.3 |
| 20260502234318 | 74 | 17 | 1.0 | 2.0 | 0.00 | 0.00 | 0.00 | 34 | 1019.4 |
| 20260502233814 | 74 | 63 | 0.0 | 4.0 | 0.00 | 0.00 | 0.00 | 34 | 1019.3 |
| 20260502233311 | 75 | 100 | 0.0 | 2.0 | 0.00 | 0.00 | 0.00 | 34 | 1019.4 |
| 20260502232808 | 74 | 182 | 0.0 | 1.0 | 0.00 | 0.00 | 0.00 | 34 | 1019.3 |
| 20260502232305 | 74 | 45 | 2.0 | 7.0 | 0.00 | 0.00 | 0.00 | 34 | 1019.5 |
| 20260502231800 | 75 | 333 | 0.0 | 2.0 | 0.00 | 0.00 | 0.00 | 34 | 1019.3 |
| 20260502231258 | 75 | 116 | 0.0 | 1.0 | 0.00 | 0.00 | 0.00 | 34 | 1019.5 |
| 20260502230756 | 75 | 236 | 0.0 | 3.0 | 0.00 | 0.00 | 0.00 | 33 | 1019.6 |
| 20260502230255 | 74 | 351 | 1.0 | 6.0 | 0.00 | 0.00 | 0.00 | 35 | 1019.4 |
| 20260502225751 | 75 | 29 | 2.0 | 4.0 | 0.00 | 0.00 | 0.00 | 34 | 1019.5 |
| 20260502225248 | 74 | 75 | 1.0 | 2.0 | 0.00 | 0.00 | 0.00 | 34 | 1019.5 |
| 20260502224744 | 74 | 93 | 3.0 | 4.0 | 0.00 | 0.00 | 0.00 | 34 | 1019.5 |
| 20260502224241 | 76 | 11 | 1.0 | 6.0 | 0.00 | 0.00 | 0.00 | 33 | 1019.5 |
| 20260502223738 | 76 | 39 | 1.0 | 3.0 | 0.00 | 0.00 | 0.00 | 34 | 1019.6 |
| 20260502223236 | 75 | 320 | 3.0 | 4.0 | 0.00 | 0.00 | 0.00 | 34 | 1019.7 |
| 20260502222734 | 75 | 357 | 2.0 | 6.0 | 0.00 | 0.00 | 0.00 | 35 | 1019.7 |
| 20260502222230 | 75 | 101 | 2.0 | 3.0 | 0.00 | 0.00 | 0.00 | 33 | 1019.7 |
| 20260502221726 | 76 | 77 | 1.0 | 6.0 | 0.00 | 0.00 | 0.00 | 35 | 1019.5 |
| 20260502221223 | 76 | 34 | 2.0 | 3.0 | 0.00 | 0.00 | 0.00 | 33 | 1019.7 |
| 20260502220719 | 77 | 236 | 2.0 | 2.0 | 0.00 | 0.00 | 0.00 | 32 | 1019.8 |
| 20260502220215 | 76 | 230 | 0.0 | 3.0 | 0.00 | 0.00 | 0.00 | 33 | 1019.6 |
| 20260502215713 | 76 | 338 | 3.0 | 6.0 | 0.00 | 0.00 | 0.00 | 31 | 1019.9 |
| 20260502215209 | 77 | 332 | 4.0 | 6.0 | 0.00 | 0.00 | 0.00 | 32 | 1020.0 |
| 20260502214707 | 77 | 182 | 3.0 | 3.0 | 0.00 | 0.00 | 0.00 | 32 | 1020.0 |
| 20260502214204 | 76 | 68 | 2.0 | 2.0 | 0.00 | 0.00 | 0.00 | 33 | 1019.8 |
| 20260502213701 | 76 | 73 | 2.0 | 4.0 | 0.00 | 0.00 | 0.00 | 34 | 1020.1 |
| 20260502213158 | 76 | 220 | 3.0 | 6.0 | 0.00 | 0.00 | 0.00 | 34 | 1020.0 |
| 20260502212657 | 77 | 304 | 1.0 | 2.0 | 0.00 | 0.00 | 0.00 | 32 | 1020.3 |
| 20260502212154 | 77 | 309 | 2.0 | 6.0 | 0.00 | 0.00 | 0.00 | 33 | 1020.1 |
| 20260502211650 | 78 | 193 | 1.0 | 4.0 | 0.00 | 0.00 | 0.00 | 32 | 1020.3 |
| 20260502211148 | 78 | 71 | 2.0 | 4.0 | 0.00 | 0.00 | 0.00 | 33 | 1020.2 |
| 20260502210644 | 77 | 197 | 2.0 | 4.0 | 0.00 | 0.00 | 0.00 | 34 | 1020.4 |
| 20260502210142 | 76 | 32 | 3.0 | 4.0 | 0.00 | 0.00 | 0.00 | 34 | 1020.5 |
| 20260502205638 | 75 | 103 | 0.0 | 1.0 | 0.00 | 0.00 | 0.00 | 35 | 1020.6 |
| 20260502205135 | 75 | 351 | 2.0 | 6.0 | 0.00 | 0.00 | 0.00 | 36 | 1020.6 |
| 20260502204632 | 75 | 78 | 2.0 | 2.0 | 0.00 | 0.00 | 0.00 | 36 | 1020.6 |
| 20260502204130 | 75 | 170 | 3.0 | 4.0 | 0.00 | 0.00 | 0.00 | 35 | 1020.8 |
| 20260502203626 | 75 | 33 | 2.0 | 4.0 | 0.00 | 0.00 | 0.00 | 35 | 1020.8 |
| 20260502203124 | 74 | 165 | 1.0 | 4.0 | 0.00 | 0.00 | 0.00 | 36 | 1021.2 |
| 20260502202619 | 75 | 12 | 1.0 | 3.0 | 0.00 | 0.00 | 0.00 | 35 | 1021.0 |
| 20260502202118 | 73 | 51 | 0.0 | 2.0 | 0.00 | 0.00 | 0.00 | 36 | 1021.1 |
| 20260502201614 | 74 | 56 | 3.0 | 4.0 | 0.00 | 0.00 | 0.00 | 37 | 1021.2 |
| 20260502201110 | 74 | 34 | 2.0 | 3.0 | 0.00 | 0.00 | 0.00 | 36 | 1021.3 |
| 20260502200606 | 75 | 77 | 1.0 | 7.0 | 0.00 | 0.00 | 0.00 | 36 | 1021.3 |
| 20260502200104 | 74 | 23 | 3.0 | 6.0 | 0.00 | 0.00 | 0.00 | 36 | 1021.3 |
| 20260502195602 | 74 | 103 | 0.0 | 1.0 | 0.00 | 0.00 | 0.00 | 37 | 1021.3 |
| 20260502195057 | 73 | 84 | 1.0 | 7.0 | 0.00 | 0.00 | 0.00 | 39 | 1021.3 |
| 20260502194553 | 74 | 94 | 3.0 | 7.0 | 0.00 | 0.00 | 0.00 | 39 | 1021.4 |
| 20260502194044 | 73 | 100 | 0.0 | 6.0 | 0.00 | 0.00 | 0.00 | 39 | 1021.4 |
| 20260502193542 | 73 | 67 | 2.0 | 2.0 | 0.00 | 0.00 | 0.00 | 39 | 1021.5 |
| 20260502193039 | 72 | 93 | 2.0 | 6.0 | 0.00 | 0.00 | 0.00 | 39 | 1021.4 |
| 20260502192534 | 73 | 81 | 4.0 | 7.0 | 0.00 | 0.00 | 0.00 | 39 | 1021.5 |
| 20260502192032 | 73 | 95 | 3.0 | 6.0 | 0.00 | 0.00 | 0.00 | 38 | 1021.6 |
| 20260502191529 | 75 | 62 | 0.0 | 4.0 | 0.00 | 0.00 | 0.00 | 36 | 1021.5 |
| 20260502191027 | 73 | 197 | 1.0 | 1.0 | 0.00 | 0.00 | 0.00 | 35 | 1021.6 |
| 20260502190524 | 73 | 218 | 2.0 | 3.0 | 0.00 | 0.00 | 0.00 | 36 | 1021.6 |
| 20260502190021 | 72 | 80 | 0.0 | 4.0 | 0.00 | 0.00 | 0.00 | 40 | 1021.7 |
| 20260502185515 | 73 | 23 | 1.0 | 3.0 | 0.00 | 0.00 | 0.00 | 39 | 1021.8 |
| 20260502185013 | 72 | 32 | 2.0 | 4.0 | 0.00 | 0.00 | 0.00 | 38 | 1021.6 |
| 20260502184508 | 71 | 80 | 2.0 | 4.0 | 0.00 | 0.00 | 0.00 | 42 | 1021.6 |
| 20260502184005 | 72 | 177 | 0.0 | 4.0 | 0.00 | 0.00 | 0.00 | 39 | 1022.0 |
| 20260502183501 | 72 | 49 | 2.0 | 6.0 | 0.00 | 0.00 | 0.00 | 37 | 1021.8 |
| 20260502182956 | 72 | 65 | 2.0 | 2.0 | 0.00 | 0.00 | 0.00 | 38 | 1022.0 |
| 20260502182452 | 72 | 54 | 0.0 | 4.0 | 0.00 | 0.00 | 0.00 | 39 | 1022.1 |
| 20260502181948 | 73 | 264 | 1.0 | 4.0 | 0.00 | 0.00 | 0.00 | 37 | 1022.2 |
| 20260502181446 | 71 | 139 | 0.0 | 3.0 | 0.00 | 0.00 | 0.00 | 40 | 1022.1 |
| 20260502180945 | 72 | 334 | 2.0 | 3.0 | 0.00 | 0.00 | 0.00 | 39 | 1022.2 |
| 20260502180442 | 72 | 342 | 3.0 | 4.0 | 0.00 | 0.00 | 0.00 | 39 | 1022.4 |
| 20260502170401 | 68 | 191 | 1.0 | 4.0 | 0.00 | 0.00 | 0.00 | 43 | 1022.6 |
| 20260502164348 | 68 | 115 | 0.0 | 3.0 | 0.00 | 0.00 | 0.00 | 42 | 1022.6 |
| 20260502163844 | 69 | 15 | 1.0 | 2.0 | 0.00 | 0.00 | 0.00 | 42 | 1022.6 |
| 20260502163340 | 68 | 131 | 0.0 | 2.0 | 0.00 | 0.00 | 0.00 | 45 | 1022.5 |
| 20260502162838 | 68 | 236 | 2.0 | 2.0 | 0.00 | 0.00 | 0.00 | 44 | 1022.5 |
| 20260502162334 | 67 | 65 | 1.0 | 2.0 | 0.00 | 0.00 | 0.00 | 45 | 1022.5 |
| 20260502161831 | 66 | 53 | 3.0 | 4.0 | 0.00 | 0.00 | 0.00 | 48 | 1022.6 |
| 20260502161321 | 66 | 73 | 0.0 | 1.0 | 0.00 | 0.00 | 0.00 | 46 | 1022.5 |
| 20260502160819 | 66 | 181 | 1.0 | 1.0 | 0.00 | 0.00 | 0.00 | 46 | 1022.4 |
| 20260502160318 | 65 | 234 | 0.0 | 1.0 | 0.00 | 0.00 | 0.00 | 47 | 1022.6 |
| 20260502152253 | 63 | 33 | 0.0 | 2.0 | 0.00 | 0.00 | 0.00 | 50 | 1022.2 |
| 20260502151750 | 63 | 208 | 0.0 | 2.0 | 0.00 | 0.00 | 0.00 | 51 | 1022.3 |
| 20260502151247 | 62 | 187 | 1.0 | 3.0 | 0.00 | 0.00 | 0.00 | 52 | 1022.7 |
| 20260502150745 | 62 | 243 | 1.0 | 3.0 | 0.00 | 0.00 | 0.00 | 52 | 1022.5 |
| 20260502150242 | 62 | 226 | 3.0 | 4.0 | 0.00 | 0.00 | 0.00 | 51 | 1022.6 |
| 20260502130624 | 55 | 170 | 2.0 | 2.0 | 0.00 | 0.00 | 0.00 | 61 | 1021.9 |
| 20260502130122 | 55 | 189 | 1.0 | 3.0 | 0.00 | 0.00 | 0.00 | 62 | 1022.0 |
| 20260502123607 | 52 | 141 | 0.0 | 0.0 | 0.00 | 0.00 | 0.00 | 70 | 1021.7 |
| 20260502123104 | 51 | 184 | 0.0 | 1.0 | 0.00 | 0.00 | 0.00 | 70 | 1021.9 |
| 20260502122600 | 51 | 162 | 0.0 | 1.0 | 0.00 | 0.00 | 0.00 | 72 | 1021.6 |
| 20260502122052 | 50 | 158 | 0.0 | 1.0 | 0.00 | 0.00 | 0.00 | 73 | 1021.5 |
| 20260502121549 | 49 | 145 | 0.0 | 0.0 | 0.00 | 0.00 | 0.00 | 75 | 1021.5 |
| 20260502121047 | 49 | 145 | 0.0 | 0.0 | 0.00 | 0.00 | 0.00 | 75 | 1021.6 |
| 20260502120543 | 49 | 123 | 0.0 | 0.0 | 0.00 | 0.00 | 0.00 | 75 | 1021.4 |
| 20260502115538 | 49 | 131 | 0.0 | 0.0 | 0.00 | 0.00 | 0.00 | 74 | 1021.2 |
| 20260502115033 | 49 | 127 | 0.0 | 0.0 | 0.00 | 0.00 | 0.00 | 74 | 1021.2 |
| 20260502114530 | 49 | 129 | 0.0 | 0.0 | 0.00 | 0.00 | 0.00 | 73 | 1021.2 |
| 20260502114027 | 49 | 145 | 0.0 | 0.0 | 0.00 | 0.00 | 0.00 | 73 | 1021.1 |
| 20260502113525 | 49 | 156 | 0.0 | 0.0 | 0.00 | 0.00 | 0.00 | 72 | 1021.2 |
| 20260502113023 | 50 | 121 | 0.0 | 0.0 | 0.00 | 0.00 | 0.00 | 72 | 1021.3 |
| 20260502112521 | 50 | 137 | 0.0 | 0.0 | 0.00 | 0.00 | 0.00 | 70 | 1021.3 |
| 20260502112018 | 51 | 156 | 0.0 | 0.0 | 0.00 | 0.00 | 0.00 | 69 | 1021.5 |
| 20260502111515 | 51 | 151 | 0.0 | 0.0 | 0.00 | 0.00 | 0.00 | 68 | 1021.3 |
| 20260502111012 | 51 | 127 | 0.0 | 0.0 | 0.00 | 0.00 | 0.00 | 68 | 1021.4 |
| 20260502110509 | 51 | 121 | 0.0 | 0.0 | 0.00 | 0.00 | 0.00 | 67 | 1021.5 |
| 20260502110007 | 52 | 119 | 0.0 | 0.0 | 0.00 | 0.00 | 0.00 | 65 | 1021.3 |
| 20260502105504 | 53 | 114 | 0.0 | 0.0 | 0.00 | 0.00 | 0.00 | 64 | 1021.1 |
| 20260502105002 | 53 | 103 | 0.0 | 1.0 | 0.00 | 0.00 | 0.00 | 64 | 1021.1 |
| 20260502104459 | 53 | 153 | 0.0 | 1.0 | 0.00 | 0.00 | 0.00 | 64 | 1021.1 |
| 20260502103956 | 54 | 142 | 0.0 | 0.0 | 0.00 | 0.00 | 0.00 | 63 | 1021.4 |
| 20260502103454 | 54 | 82 | 1.0 | 1.0 | 0.00 | 0.00 | 0.00 | 62 | 1021.5 |
| 20260502102951 | 54 | 108 | 0.0 | 2.0 | 0.00 | 0.00 | 0.00 | 62 | 1021.6 |
| 20260502102448 | 54 | 127 | 1.0 | 1.0 | 0.00 | 0.00 | 0.00 | 61 | 1021.7 |
| 20260502101944 | 54 | 72 | 1.0 | 2.0 | 0.00 | 0.00 | 0.00 | 61 | 1021.6 |
| 20260502101443 | 54 | 86 | 0.0 | 1.0 | 0.00 | 0.00 | 0.00 | 64 | 1021.9 |
| 20260502100941 | 54 | 333 | 1.0 | 2.0 | 0.00 | 0.00 | 0.00 | 65 | 1022.0 |
| 20260502100440 | 54 | 94 | 0.0 | 2.0 | 0.00 | 0.00 | 0.00 | 64 | 1022.1 |
| 20260502091414 | 50 | 133 | 0.0 | 0.0 | 0.00 | 0.00 | 0.00 | 72 | 1020.4 |
| 20260502090911 | 49 | 136 | 0.0 | 0.0 | 0.00 | 0.00 | 0.00 | 73 | 1020.2 |
| 20260502090408 | 49 | 143 | 0.0 | 0.0 | 0.00 | 0.00 | 0.00 | 72 | 1020.2 |
| 20260502071303 | 49 | 139 | 0.0 | 0.0 | 0.00 | 0.00 | 0.00 | 69 | 1020.1 |
| 20260502070801 | 49 | 139 | 0.0 | 0.0 | 0.00 | 0.00 | 0.00 | 69 | 1020.1 |
| 20260502070258 | 50 | 139 | 0.0 | 0.0 | 0.00 | 0.00 | 0.00 | 68 | 1020.2 |
| 20260502065757 | 50 | 138 | 0.0 | 0.0 | 0.00 | 0.00 | 0.00 | 69 | 1020.1 |
| 20260502065254 | 50 | 132 | 0.0 | 0.0 | 0.00 | 0.00 | 0.00 | 69 | 1020.1 |
| 20260502064752 | 49 | 129 | 0.0 | 0.0 | 0.00 | 0.00 | 0.00 | 70 | 1020.0 |
| 20260502064250 | 49 | 154 | 0.0 | 0.0 | 0.00 | 0.00 | 0.00 | 71 | 1020.2 |
| 20260502063747 | 50 | 154 | 0.0 | 0.0 | 0.00 | 0.00 | 0.00 | 70 | 1020.4 |
| 20260502063245 | 50 | 155 | 0.0 | 0.0 | 0.00 | 0.00 | 0.00 | 70 | 1020.3 |
| 20260502062742 | 50 | 155 | 0.0 | 0.0 | 0.00 | 0.00 | 0.00 | 69 | 1020.2 |
| 20260502062239 | 50 | 137 | 0.0 | 0.0 | 0.00 | 0.00 | 0.00 | 70 | 1020.2 |
| 20260502061737 | 50 | 136 | 0.0 | 0.0 | 0.00 | 0.00 | 0.00 | 70 | 1020.2 |
| 20260502061230 | 50 | 127 | 0.0 | 0.0 | 0.00 | 0.00 | 0.00 | 69 | 1020.4 |
| 20260502060724 | 50 | 127 | 0.0 | 0.0 | 0.00 | 0.00 | 0.00 | 70 | 1020.4 |
| 20260502060215 | 51 | 127 | 0.0 | 0.0 | 0.00 | 0.00 | 0.00 | 68 | 1020.4 |
| 20260502055713 | 51 | 127 | 0.0 | 0.0 | 0.00 | 0.00 | 0.00 | 68 | 1020.5 |
| 20260502055210 | 51 | 123 | 0.0 | 0.0 | 0.00 | 0.00 | 0.00 | 67 | 1020.4 |
| 20260502054710 | 52 | 126 | 0.0 | 0.0 | 0.00 | 0.00 | 0.00 | 66 | 1020.3 |
| 20260502054206 | 52 | 125 | 0.0 | 0.0 | 0.00 | 0.00 | 0.00 | 65 | 1020.3 |
| 20260502053704 | 52 | 125 | 0.0 | 0.0 | 0.00 | 0.00 | 0.00 | 65 | 1020.1 |
| 20260502053200 | 53 | 125 | 0.0 | 0.0 | 0.00 | 0.00 | 0.00 | 64 | 1020.5 |
| 20260502052658 | 53 | 124 | 0.0 | 0.0 | 0.00 | 0.00 | 0.00 | 63 | 1020.3 |
| 20260502052156 | 53 | 129 | 0.0 | 0.0 | 0.00 | 0.00 | 0.00 | 65 | 1020.2 |
| 20260502051654 | 52 | 130 | 0.0 | 0.0 | 0.00 | 0.00 | 0.00 | 66 | 1020.2 |
| 20260502051152 | 51 | 131 | 0.0 | 0.0 | 0.00 | 0.00 | 0.00 | 69 | 1020.3 |
| 20260502050648 | 51 | 131 | 0.0 | 0.0 | 0.00 | 0.00 | 0.00 | 69 | 1020.2 |
| 20260502050145 | 51 | 128 | 0.0 | 0.0 | 0.00 | 0.00 | 0.00 | 68 | 1020.3 |
| 20260502045641 | 51 | 126 | 0.0 | 0.0 | 0.00 | 0.00 | 0.00 | 68 | 1020.3 |
| 20260502045134 | 51 | 144 | 0.0 | 0.0 | 0.00 | 0.00 | 0.00 | 69 | 1020.2 |
| 20260502044629 | 51 | 144 | 0.0 | 0.0 | 0.00 | 0.00 | 0.00 | 68 | 1020.0 |
| 20260502044126 | 51 | 144 | 0.0 | 0.0 | 0.00 | 0.00 | 0.00 | 68 | 1020.2 |
| 20260502043624 | 51 | 144 | 0.0 | 0.0 | 0.00 | 0.00 | 0.00 | 68 | 1020.1 |
| 20260502043115 | 51 | 145 | 0.0 | 0.0 | 0.00 | 0.00 | 0.00 | 69 | 1020.2 |
| 20260502042614 | 52 | 145 | 0.0 | 0.0 | 0.00 | 0.00 | 0.00 | 69 | 1020.3 |
| 20260502042112 | 52 | 144 | 0.0 | 0.0 | 0.00 | 0.00 | 0.00 | 68 | 1020.3 |
| 20260502041609 | 52 | 145 | 0.0 | 0.0 | 0.00 | 0.00 | 0.00 | 69 | 1020.3 |
| 20260502041106 | 52 | 145 | 0.0 | 0.0 | 0.00 | 0.00 | 0.00 | 69 | 1020.2 |
| 20260502040603 | 52 | 145 | 0.0 | 0.0 | 0.00 | 0.00 | 0.00 | 69 | 1020.5 |
| 20260502040101 | 52 | 145 | 0.0 | 0.0 | 0.00 | 0.00 | 0.00 | 69 | 1020.3 |
| 20260502035556 | 53 | 145 | 0.0 | 0.0 | 0.00 | 0.00 | 0.00 | 68 | 1020.2 |
| 20260502035054 | 53 | 145 | 0.0 | 0.0 | 0.00 | 0.00 | 0.00 | 67 | 1020.1 |
| 20260502034551 | 53 | 145 | 0.0 | 0.0 | 0.00 | 0.00 | 0.00 | 64 | 1020.3 |
| 20260502034049 | 54 | 145 | 0.0 | 0.0 | 0.00 | 0.00 | 0.00 | 63 | 1020.0 |
| 20260502033547 | 54 | 145 | 0.0 | 0.0 | 0.00 | 0.00 | 0.00 | 63 | 1019.9 |
| 20260502033045 | 55 | 145 | 0.0 | 0.0 | 0.00 | 0.00 | 0.00 | 62 | 1019.9 |
| 20260502032540 | 55 | 145 | 0.0 | 0.0 | 0.00 | 0.00 | 0.00 | 61 | 1020.0 |
| 20260502032037 | 55 | 145 | 0.0 | 0.0 | 0.00 | 0.00 | 0.00 | 59 | 1019.9 |
| 20260502031535 | 55 | 146 | 0.0 | 0.0 | 0.00 | 0.00 | 0.00 | 59 | 1020.1 |
| 20260502031033 | 56 | 146 | 0.0 | 0.0 | 0.00 | 0.00 | 0.00 | 58 | 1020.0 |
| 20260502030531 | 56 | 146 | 0.0 | 0.0 | 0.00 | 0.00 | 0.00 | 57 | 1019.9 |
| 20260502030029 | 57 | 146 | 0.0 | 0.0 | 0.00 | 0.00 | 0.00 | 56 | 1020.0 |
| 20260502025526 | 57 | 147 | 0.0 | 0.0 | 0.00 | 0.00 | 0.00 | 55 | 1019.8 |
| 20260502025024 | 57 | 145 | 0.0 | 0.0 | 0.00 | 0.00 | 0.00 | 55 | 1019.7 |
| 20260502024521 | 57 | 134 | 0.0 | 0.0 | 0.00 | 0.00 | 0.00 | 55 | 1019.9 |
| 20260502024020 | 57 | 134 | 0.0 | 0.0 | 0.00 | 0.00 | 0.00 | 55 | 1019.8 |
| 20260502023517 | 57 | 134 | 0.0 | 0.0 | 0.00 | 0.00 | 0.00 | 55 | 1019.8 |
| 20260502023014 | 57 | 134 | 0.0 | 0.0 | 0.00 | 0.00 | 0.00 | 54 | 1019.7 |
| 20260502022510 | 58 | 134 | 0.0 | 0.0 | 0.00 | 0.00 | 0.00 | 53 | 1019.5 |
| 20260502022009 | 58 | 134 | 0.0 | 0.0 | 0.00 | 0.00 | 0.00 | 52 | 1019.6 |
| 20260502021505 | 58 | 136 | 0.0 | 0.0 | 0.00 | 0.00 | 0.00 | 51 | 1019.5 |
| 20260502021001 | 58 | 137 | 0.0 | 0.0 | 0.00 | 0.00 | 0.00 | 51 | 1019.5 |
| 20260502020455 | 59 | 139 | 0.0 | 0.0 | 0.00 | 0.00 | 0.00 | 50 | 1019.4 |
| 20260502015950 | 59 | 139 | 0.0 | 0.0 | 0.00 | 0.00 | 0.00 | 49 | 1019.4 |
| 20260502015449 | 59 | 139 | 0.0 | 0.0 | 0.00 | 0.00 | 0.00 | 49 | 1019.2 |
| 20260502014945 | 60 | 139 | 0.0 | 0.0 | 0.00 | 0.00 | 0.00 | 47 | 1019.3 |
| 20260502014442 | 61 | 139 | 0.0 | 0.0 | 0.00 | 0.00 | 0.00 | 46 | 1019.0 |
| 20260502013938 | 62 | 139 | 0.0 | 0.0 | 0.00 | 0.00 | 0.00 | 45 | 1019.1 |
| 20260502013434 | 62 | 139 | 0.0 | 0.0 | 0.00 | 0.00 | 0.00 | 43 | 1019.1 |
| 20260502012931 | 64 | 139 | 0.0 | 0.0 | 0.00 | 0.00 | 0.00 | 42 | 1019.0 |
| 20260502012429 | 64 | 103 | 0.0 | 1.0 | 0.00 | 0.00 | 0.00 | 39 | 1019.0 |
| 20260502011926 | 64 | 92 | 0.0 | 0.0 | 0.00 | 0.00 | 0.00 | 39 | 1019.0 |
| 20260502011422 | 65 | 86 | 0.0 | 1.0 | 0.00 | 0.00 | 0.00 | 39 | 1018.9 |
| 20260502010919 | 65 | 66 | 1.0 | 1.0 | 0.00 | 0.00 | 0.00 | 38 | 1018.7 |
| 20260502010415 | 65 | 75 | 1.0 | 2.0 | 0.00 | 0.00 | 0.00 | 37 | 1018.8 |
| 20260502005912 | 65 | 118 | 0.0 | 0.0 | 0.00 | 0.00 | 0.00 | 37 | 1018.7 |
| 20260502005410 | 65 | 69 | 1.0 | 2.0 | 0.00 | 0.00 | 0.00 | 36 | 1018.6 |
| 20260502004909 | 66 | 75 | 1.0 | 2.0 | 0.00 | 0.00 | 0.00 | 35 | 1018.5 |
| 20260502004403 | 66 | 60 | 1.0 | 3.0 | 0.00 | 0.00 | 0.00 | 35 | 1018.7 |
| 20260502003901 | 66 | 109 | 1.0 | 2.0 | 0.00 | 0.00 | 0.00 | 35 | 1018.5 |
| 20260502003358 | 66 | 95 | 1.0 | 3.0 | 0.00 | 0.00 | 0.00 | 35 | 1018.5 |
| 20260502002854 | 66 | 73 | 3.0 | 6.0 | 0.00 | 0.00 | 0.00 | 34 | 1018.3 |
| 20260502002352 | 66 | 100 | 1.0 | 3.0 | 0.00 | 0.00 | 0.00 | 34 | 1018.4 |
| 20260502001849 | 67 | 42 | 3.0 | 4.0 | 0.00 | 0.00 | 0.00 | 33 | 1018.3 |
| 20260502001346 | 67 | 87 | 1.0 | 3.0 | 0.00 | 0.00 | 0.00 | 33 | 1018.2 |
| 20260502000844 | 67 | 25 | 1.0 | 2.0 | 0.00 | 0.00 | 0.00 | 32 | 1018.4 |
| 20260502000342 | 67 | 94 | 1.0 | 3.0 | 0.00 | 0.00 | 0.00 | 33 | 1018.5 |
| 20260501235838 | 67 | 71 | 2.0 | 3.0 | 0.00 | 0.00 | 0.00 | 33 | 1018.3 |
| 20260501235334 | 68 | 70 | 3.0 | 8.0 | 0.00 | 0.00 | 0.00 | 32 | 1018.3 |
| 20260501234829 | 68 | 85 | 0.0 | 1.0 | 0.00 | 0.00 | 0.00 | 31 | 1018.4 |